Waarnemingen

Advertentie
Mijn weer
Cap Corse, Frankrijk (7785): temperatuur & dauwpunt: 14.10.2018 04:00:00 - 20.10.2018 04:00:00 (CEST)Cap Corse, Frankrijk (7785): windsnelheid & windstoten: 14.10.2018 04:00:00 - 20.10.2018 04:00:00 (CEST)Cap Corse, Frankrijk (7785): windrichting: 14.10.2018 04:00:00 - 20.10.2018 04:00:00 (CEST)Cap Corse, Frankrijk (7785): luchtdruk: 14.10.2018 04:00:00 - 20.10.2018 04:00:00 (CEST)Cap Corse, Frankrijk (7785): zicht: 14.10.2018 04:00:00 - 20.10.2018 04:00:00 (CEST)Cap Corse, Frankrijk (7785): neerslag: 14.10.2018 04:00:00 - 20.10.2018 04:00:00 (CEST)
Datum & Tijd tt [°C] td [°C] ff [km/u] ff [kn] fx [km/u] fx [kn] dd ppp [hPa] vv [km] rr [mm]
20.10.2018 04:00:00 18,7 13,8 0 0 13 7 N 1019,8 - 0,0
20.10.2018 03:00:00 18,9 14,6 10 5 20 11 OZO 1019,8 - 0,0
20.10.2018 02:00:00 18,7 14,2 7 4 15 8 O 1019,7 - 0,0
20.10.2018 01:00:00 19,3 14,3 10 5 13 7 O 1019,6 - 0,0
20.10.2018 00:00:00 19,1 14,6 8 4 10 5 O 1019,3 - 0,0
19.10.2018 23:00:00 19,6 15,3 9 5 26 14 O 1019,1 - 0,0
19.10.2018 22:00:00 20,8 14,9 16 9 29 15 Z 1018,6 - 0,0
19.10.2018 21:00:00 20,4 15,2 5 3 14 7 ZZW 1018,0 - 0,0
19.10.2018 20:00:00 20,9 15,2 9 5 26 14 ZZW 1017,6 15 0,0
19.10.2018 19:00:00 21,7 13,1 22 12 34 18 ZO 1016,7 - 0,0
19.10.2018 18:00:00 21,2 14,6 23 13 31 17 ZO 1016,0 - 0,0
19.10.2018 17:00:00 22,5 16,5 18 10 38 21 OZO 1016,0 15 0,0
19.10.2018 16:00:00 22,9 15,5 27 15 41 22 OZO 1016,0 - 0,0
19.10.2018 15:00:00 23,0 17,0 20 11 37 20 O 1015,7 - 0,0
19.10.2018 14:00:00 21,9 15,7 23 12 30 16 O 1016,2 15 0,0
19.10.2018 13:00:00 22,0 15,1 20 11 31 17 O 1016,6 - 0,0
19.10.2018 12:00:00 21,7 14,3 26 14 34 18 O 1017,0 - 0,0
19.10.2018 11:00:00 21,6 14,5 23 13 36 20 O 1016,7 15 0,0
19.10.2018 10:00:00 21,4 14,5 22 12 36 19 O 1016,5 - 0,0
19.10.2018 09:00:00 20,3 15,9 25 14 35 19 OZO 1016,1 - 0,0
19.10.2018 08:00:00 18,7 14,8 22 12 38 21 OZO 1015,2 15 0,0
19.10.2018 07:00:00 19,0 14,5 30 16 40 21 OZO 1015,0 - 0,0
19.10.2018 06:00:00 19,2 15,3 27 15 40 21 OZO 1014,9 - 0,0
19.10.2018 05:00:00 19,3 15,2 25 13 40 22 O 1014,6 12 0,0
19.10.2018 04:00:00 19,6 15,9 24 13 41 22 O 1014,7 - 0,0
19.10.2018 03:00:00 20,0 16,2 26 14 36 19 OZO 1014,5 - 0,0
19.10.2018 02:00:00 19,9 15,7 21 11 31 17 OZO 1014,6 - 0,0
19.10.2018 01:00:00 20,0 15,6 22 12 35 19 OZO 1014,6 - 0,0
19.10.2018 00:00:00 20,0 16,0 21 11 28 15 O 1014,4 - 0,0
18.10.2018 23:00:00 19,7 16,2 16 9 25 13 O 1014,4 - 0,0
18.10.2018 22:00:00 19,5 16,5 16 8 25 13 OZO 1014,3 - 0,0
18.10.2018 21:00:00 19,4 16,2 13 7 21 12 OZO 1014,0 - 0,0
18.10.2018 20:00:00 19,4 15,7 14 7 22 12 O 1013,5 - 0,0
18.10.2018 19:00:00 19,2 14,5 15 8 22 12 OZO 1013,0 - 0,0
18.10.2018 18:00:00 20,7 15,0 13 7 27 15 O 1012,7 - 0,0
18.10.2018 17:00:00 21,5 15,3 19 10 30 16 O 1012,5 15 0,0
18.10.2018 16:00:00 22,3 15,4 18 10 37 20 OZO 1012,4 - 0,0
18.10.2018 15:00:00 21,9 16,2 27 14 43 23 O 1012,9 - 0,0
18.10.2018 14:00:00 21,7 16,0 23 12 33 18 O 1013,2 15 0,0
18.10.2018 13:00:00 21,8 16,3 21 11 34 18 O 1014,0 - 0,0
18.10.2018 12:00:00 21,1 16,9 22 12 32 18 O 1014,2 - 0,0
18.10.2018 11:00:00 21,9 16,2 16 9 31 17 O 1014,0 15 0,0
18.10.2018 10:00:00 21,5 16,9 12 6 37 20 O 1014,3 - 0,0
18.10.2018 09:00:00 20,7 16,7 17 9 31 17 O 1014,0 - 0,0
18.10.2018 08:00:00 18,9 16,5 13 7 29 16 O 1013,5 10 0,0
18.10.2018 07:00:00 18,9 16,5 18 10 42 23 O 1013,3 - 0,0
18.10.2018 06:00:00 19,1 16,5 27 14 45 24 OZO 1013,0 - 0,0
18.10.2018 05:00:00 18,9 16,3 23 13 41 22 O 1013,0 10 0,0
18.10.2018 04:00:00 19,2 16,6 19 10 39 21 O 1013,6 - 0,0
18.10.2018 03:00:00 18,9 16,5 26 14 37 20 OZO 1014,0 - 0,0
18.10.2018 02:00:00 19,1 16,5 19 10 39 21 O 1014,8 - 0,4
18.10.2018 01:00:00 20,1 16,5 28 15 44 24 O 1014,9 - 0,2
18.10.2018 00:00:00 20,1 16,1 29 16 44 24 O 1014,8 - 0,0
17.10.2018 23:00:00 20,1 16,1 29 16 46 25 O 1015,2 - 0,0
17.10.2018 22:00:00 19,9 16,1 28 15 41 22 O 1015,0 - 0,0
17.10.2018 21:00:00 19,5 16,2 16 9 46 25 OZO 1015,3 - 0,0
17.10.2018 20:00:00 19,4 16,8 24 13 41 22 O 1014,9 - 0,0
17.10.2018 19:00:00 19,4 16,4 26 14 45 25 OZO 1014,6 - 0,0
17.10.2018 18:00:00 19,1 16,3 18 10 42 23 O 1014,6 - 0,0
17.10.2018 17:00:00 19,5 15,6 34 18 46 25 ZO 1014,6 10 0,0
17.10.2018 16:00:00 19,7 17,1 20 11 44 24 O 1014,7 - 0,0
17.10.2018 15:00:00 19,9 17,1 27 15 53 29 O 1014,5 - 0,0
17.10.2018 14:00:00 20,3 18,1 22 12 51 28 O 1014,9 10 0,2
17.10.2018 13:00:00 19,3 17,4 31 17 46 25 O 1015,5 - 0,0
17.10.2018 12:00:00 18,9 17,0 28 15 44 24 OZO 1016,1 - 4,7
17.10.2018 11:00:00 18,9 16,9 16 9 35 19 OZO 1016,1 10 1,6
17.10.2018 10:00:00 19,1 16,1 18 10 40 22 OZO 1016,2 - 0,0
17.10.2018 09:00:00 19,4 16,1 25 14 46 25 OZO 1016,0 - 0,0
17.10.2018 08:00:00 19,9 16,7 17 9 51 27 O 1015,7 10 0,0
17.10.2018 07:00:00 19,4 16,2 34 18 51 28 OZO 1015,2 - 0,0
17.10.2018 06:00:00 19,2 16,8 27 14 45 24 OZO 1015,5 - 0,0
17.10.2018 05:00:00 19,5 17,3 29 16 43 23 O 1015,6 10 0,0
17.10.2018 04:00:00 19,7 17,5 24 13 45 24 OZO 1016,0 - 0,0
17.10.2018 03:00:00 19,5 17,5 20 11 35 19 OZO 1016,5 - 0,0
17.10.2018 02:00:00 19,6 17,6 22 12 38 21 O 1016,6 - 0,0
17.10.2018 01:00:00 19,4 17,2 23 12 43 23 O 1016,8 - 0,0
17.10.2018 00:00:00 19,3 17,1 21 12 48 26 O 1017,0 - 0,0
16.10.2018 23:00:00 19,5 16,9 34 19 53 29 OZO 1017,1 - 0,0
16.10.2018 22:00:00 18,9 16,7 27 14 47 25 O 1017,0 - 0,0
16.10.2018 21:00:00 18,6 16,7 34 18 66 35 O 1017,4 - 1,0
16.10.2018 20:00:00 19,5 16,3 53 28 72 39 ONO 1016,5 - 0,0
16.10.2018 19:00:00 19,5 16,9 48 26 65 35 ONO 1016,2 - 2,8
16.10.2018 18:00:00 20,0 16,6 39 21 56 30 ONO 1016,7 - 0,0
16.10.2018 17:00:00 20,0 15,4 41 22 63 34 O 1016,4 10 0,0
16.10.2018 16:00:00 19,5 16,0 36 19 53 28 ONO 1016,5 - 0,0
16.10.2018 15:00:00 19,2 16,1 36 19 53 28 ONO 1016,7 - 0,0
16.10.2018 14:00:00 18,4 16,2 27 15 47 26 ONO 1017,4 10 0,6
16.10.2018 13:00:00 18,3 15,7 31 17 43 23 ONO 1017,5 - 0,0
16.10.2018 12:00:00 18,6 16,7 29 16 41 22 ONO 1017,4 - 0,0
16.10.2018 11:00:00 18,0 16,2 17 9 27 15 O 1017,4 6 0,0
16.10.2018 10:00:00 17,9 15,5 15 8 28 15 OZO 1017,4 - 0,0
16.10.2018 09:00:00 18,3 15,5 6 3 36 19 ZZO 1017,0 - 0,0
16.10.2018 08:00:00 19,3 15,4 18 10 36 20 O 1016,3 12 0,0
16.10.2018 07:00:00 20,3 15,1 21 11 35 19 O 1015,8 - 0,0
16.10.2018 06:00:00 19,8 15,0 17 9 29 16 O 1015,8 - 0,0
16.10.2018 05:00:00 19,9 15,1 18 10 31 17 OZO 1015,6 12 0,0
16.10.2018 04:00:00 19,8 14,8 12 6 26 14 O 1015,8 - 0,0
16.10.2018 03:00:00 19,4 14,9 13 7 24 13 O 1016,4 - 0,0
16.10.2018 02:00:00 19,7 14,3 13 7 22 12 O 1016,8 - 0,0
16.10.2018 01:00:00 19,7 14,1 14 8 26 14 O 1016,9 - 0,0
16.10.2018 00:00:00 19,8 15,0 19 10 33 18 O 1017,1 - 0,0
15.10.2018 23:00:00 19,8 15,9 21 11 35 19 O 1017,0 - 0,0
15.10.2018 22:00:00 19,6 15,0 16 8 27 15 O 1016,7 - 0,0
15.10.2018 21:00:00 19,6 12,6 9 5 28 15 ZO 1016,5 - 0,0
15.10.2018 20:00:00 20,0 13,0 22 12 40 21 OZO 1016,0 - 0,0
15.10.2018 19:00:00 20,2 14,3 22 12 48 26 OZO 1015,8 - 0,0
15.10.2018 18:00:00 20,5 13,5 27 15 46 25 OZO 1015,7 - 0,0
15.10.2018 17:00:00 21,1 13,3 19 10 43 23 OZO 1015,3 - 0,0
15.10.2018 16:00:00 21,4 13,1 23 12 39 21 O 1015,0 - 0,0
15.10.2018 15:00:00 22,5 12,7 23 12 45 24 OZO 1015,3 - 0,0
15.10.2018 14:00:00 22,2 14,6 27 15 46 25 OZO 1015,4 10 0,0
15.10.2018 13:00:00 22,1 14,0 26 14 45 24 OZO 1015,7 - 0,0
15.10.2018 12:00:00 21,7 15,1 22 12 46 25 OZO 1016,0 - 0,0
15.10.2018 11:00:00 20,9 15,4 22 12 40 22 OZO 1015,9 10 0,0
15.10.2018 10:00:00 20,5 15,9 15 8 27 14 O 1015,8 - 0,0
15.10.2018 09:00:00 19,1 16,0 12 7 26 14 OZO 1015,8 - 0,0
15.10.2018 08:00:00 18,4 15,6 13 7 27 14 O 1015,5 - 0,0
15.10.2018 07:00:00 18,3 15,5 18 10 29 15 OZO 1015,3 - 0,0
15.10.2018 06:00:00 18,4 15,6 21 11 30 16 OZO 1015,3 - 0,0
15.10.2018 05:00:00 18,3 15,4 16 9 29 16 O 1015,3 15 0,0
15.10.2018 04:00:00 18,6 14,9 22 12 37 20 OZO 1015,6 - 0,0
15.10.2018 03:00:00 18,3 12,9 12 7 26 14 OZO 1016,1 - 0,0
15.10.2018 02:00:00 18,2 13,3 17 9 29 15 OZO 1016,2 - 0,0
15.10.2018 01:00:00 17,4 12,9 10 5 18 10 ONO 1016,6 - 0,0
15.10.2018 00:00:00 17,8 12,9 11 6 28 15 ZO 1016,8 - 0,0
14.10.2018 23:00:00 18,8 13,2 10 6 42 23 O 1016,8 - 0,0
14.10.2018 22:00:00 19,2 15,1 21 12 39 21 OZO 1016,4 - 0,0
14.10.2018 21:00:00 18,7 13,1 12 7 46 25 ZO 1016,6 - 0,0
14.10.2018 20:00:00 19,2 13,4 31 17 53 29 OZO 1016,0 15 0,0
14.10.2018 19:00:00 19,3 14,3 35 19 50 27 ZO 1015,7 - 0,0
14.10.2018 18:00:00 20,3 14,0 22 12 37 20 OZO 1016,0 - 0,0
14.10.2018 17:00:00 22,0 11,7 23 13 40 22 OZO 1015,7 15 0,0
14.10.2018 16:00:00 22,8 10,9 22 12 42 23 O 1015,9 - 0,0
14.10.2018 15:00:00 23,6 11,9 18 10 39 21 O 1016,2 - 0,0
14.10.2018 14:00:00 23,9 11,6 18 10 33 18 OZO 1016,8 15 0,0
14.10.2018 13:00:00 23,6 11,6 21 11 47 25 OZO 1017,6 - 0,0
14.10.2018 12:00:00 23,4 12,4 21 11 36 19 OZO 1017,8 - 0,0
14.10.2018 11:00:00 22,6 13,4 24 13 47 26 OZO 1018,0 15 0,0
14.10.2018 10:00:00 21,8 10,6 30 16 50 27 OZO 1017,8 - 0,0
14.10.2018 09:00:00 21,1 10,3 27 15 45 24 ZO 1018,1 - 0,0
14.10.2018 08:00:00 19,7 10,1 34 18 43 23 ZO 1017,8 15 0,0
14.10.2018 07:00:00 19,4 9,0 34 19 44 24 ZO 1018,0 - 0,0
14.10.2018 06:00:00 19,6 7,3 32 17 44 24 ZO 1018,4 - 0,0
14.10.2018 05:00:00 19,6 7,0 31 17 42 23 ZO 1018,5 12 0,0
14.10.2018 04:00:00 19,7 7,7 30 16 37 20 ZO 1018,9 - 0,0

tt = temperatuur
td = dauwpunt
ff = windsnelheid
fx = windstoten
dd = windrichting
ppp = luchtdruk
vv = zicht
rr = neerslag

Weerstations in de omgeving